Regional Weather Roundup
Issued by NWS

Home | Current Version | Previous Version | Graphics & Text | Print | Product List | Glossary Off
Versions: 1 2 3 4 5 6 7 8 9 10 11 12 13 14 15 16 17 18 19 20 21 22 23 24 25 26 27 28 29 30 31 32 33 34 35 36 37 38 39 40 41 42 43 44 45 46 47 48 49 50

000
ASUS43 KTOP 160559
RWRKS

WEATHER ROUNDUP FOR KANSAS
NATIONAL WEATHER SERVICE GOODLAND KS
100 AM CDT MON OCT 16 2017

NOTE:  "FAIR" INDICATES FEW OR NO CLOUDS BELOW 12,000 FEET WITH NO
SIGNIFICANT WEATHER AND/OR OBSTRUCTIONS TO VISIBILITY.

KSZ001>006-013>018-027>032-041>047-160700-
NORTHWEST KANSAS

CITY           SKY/WX    TMP DP  RH WIND       PRES   REMARKS
GOODLAND       CLEAR     47  28  47 SW10      30.38F
6HR MIN TEMP:  41; 6HR MAX TEMP:  60;

HAYS           CLEAR     41  35  79 CALM      30.40S
HILL CITY      CLEAR     37  33  85 W3        30.39F
6HR MIN TEMP:  37; 6HR MAX TEMP:  60;

RUSSELL        CLEAR     43  36  76 S7        30.38S
6HR MIN TEMP:  41; 6HR MAX TEMP:  60;

$$

KSZ061>065-074>080-084>089-160700-
SOUTHWEST KANSAS

CITY           SKY/WX    TMP DP  RH WIND       PRES   REMARKS
DODGE CITY     CLEAR     42  31  64 S8        30.42S
6HR MIN TEMP:  41; 6HR MAX TEMP:  58;

ELKHART          N/A     48  29  48 S12         N/A
GARDEN CITY    CLEAR     42  29  59 S8        30.41F
6HR MIN TEMP:  41; 6HR MAX TEMP:  59;

GREAT BEND     CLEAR     40  35  83 SW3       30.40S
LIBERAL        CLEAR     42  34  73 SW9       30.43F
$$

KSZ066>073-081>083-090>101-160700-
SOUTHEAST KANSAS

CITY           SKY/WX    TMP DP  RH WIND       PRES   REMARKS
CHANUTE        CLEAR     43  39  86 CALM      30.40S
6HR MIN TEMP:  42; 6HR MAX TEMP:  56;

COFFEYVILLE    CLEAR     45  43  93 CALM      30.40S
6HR MIN TEMP:  44; 6HR MAX TEMP:  56;

HUTCHINSON     CLEAR     40  39  97 CALM      30.39F
6HR MIN TEMP:  37; 6HR MAX TEMP:  56;

MEDICINE LODGE   N/A     41  37  86 N3        30.41S
NEWTON         CLEAR     47  35  63 S5        30.40S
PARSONS        CLEAR     42  40  92 CALM      30.41S
6HR MIN TEMP:  42; 6HR MAX TEMP:  55; 6HR PCP: TRACE;

WICHITA INTL   CLEAR     44  41  89 CALM      30.39F
6HR MIN TEMP:  41; 6HR MAX TEMP:  58;

WICHITA JABRA  CLEAR     47  37  68 S5        30.39S
6HR MIN TEMP:  44; 6HR MAX TEMP:  54;

WICHITA MCCONL CLEAR     49  36  61 CALM      30.39F
WINFIELD       CLEAR     44  42  93 CALM      30.41F
6HR MIN TEMP:  43; 6HR MAX TEMP:  53;

$$

KSZ007>012-019>026-033>040-048>060-102>105-160700-
NORTHEAST KANSAS

CITY           SKY/WX    TMP DP  RH WIND       PRES   REMARKS
CONCORDIA      CLEAR     48  35  60 SW3       30.36S
6HR MIN TEMP:  47; 6HR MAX TEMP:  53;

EMPORIA        CLEAR     43  35  73 SW3       30.38F
6HR MIN TEMP:  40; 6HR MAX TEMP:  54;

LAWRENCE       CLEAR     39  38  96 NW3       30.38S
6HR MIN TEMP:  38; 6HR MAX TEMP:  53;

MANHATTAN      CLEAR     39  38  96 CALM      30.38S
6HR MIN TEMP:  39; 6HR MAX TEMP:  57;

OLATHE IND     CLEAR     42  38  85 CALM      30.38S
6HR MIN TEMP:  42; 6HR MAX TEMP:  53;

OLATHE EXE     CLEAR     43  39  86 CALM      30.37S
6HR MIN TEMP:  42; 6HR MAX TEMP:  55;

SALINA         CLEAR     44  41  89 S6        30.39S
6HR MIN TEMP:  43; 6HR MAX TEMP:  61;

TOPEKA BILLARD CLEAR     43  42  97 CALM      30.37F
6HR MIN TEMP:  42; 6HR MAX TEMP:  55;

TOPEKA FORBES  CLEAR     42  39  89 S3        30.37S
6HR MIN TEMP:  41; 6HR MAX TEMP:  53;

$$




USA.gov is the U.S. government's official web portal to all federal, state and local government web resources and services.